Preview of NWS' New Version of Forecast
This preview is not operational and should not be used for support decisions.

Regional Weather Roundup (RWR)

Issued by National Weather Service (NWS)

                            
000
ASUS43 KDTX 182010
RWRMI 
MICHIGAN HOURLY REGIONAL WEATHER ROUNDUP
NATIONAL WEATHER SERVICE DETROIT/PONTIAC MI
400 PM EDT TUE JUN 18 2019

NOTE: "FAIR" INDICATES FEW OR NO CLOUDS BELOW 12,000 FEET WITH NO
SIGNIFICANT WEATHER AND/OR OBSTRUCTION TO VISIBILITY.

MIZ047>049-052>055-059>063-066>070-074>076-081>083-182100-
SOUTHEAST LOWER MICHIGAN
  
CITY           SKY/WX    TMP DP  RH WIND       PRES   REMARKS
ADRIAN         FAIR      77  60  55 VRB6      29.92F                  
ALMA           PTSUNNY   77  54  44 S5        29.92F                  
ANN ARBOR      PTSUNNY   76  62  62 VRB3      29.91F                  
BAD AXE        FAIR      77  51  40 W6        29.91F                  
CARO           PTSUNNY   76  60  57 W5        29.91F                  
DETROIT CITY   PTSUNNY   75  58  55 SE6       29.91F                  
DETROIT        PTSUNNY   78  59  51 VRB5      29.92F                  
FLINT          CLOUDY    79  59  50 W7        29.91F                  
GROSSE ILE     FAIR      70  63  77 S8        29.92F                  
HILLSDALE      CLOUDY    76  60  56 S7        29.92F                  
HOWELL         FAIR      76  57  51 CALM      29.92F                  

CITY           SKY/WX    TMP DP  RH WIND       PRES   REMARKS
JACKSON        PTSUNNY   77  61  57 VRB3      29.91F                  
LAMBERTVILLE   FAIR      75  61  61 S3        29.91F                  
LANSING        FAIR      78  59  51 SE5       29.92F                  
LAPEER         PTSUNNY   75  60  59 CALM      29.92F                  
MASON          PTSUNNY   76  60  57 CALM      29.92F                  
MONROE         FAIR      75  65  69 SE6       29.91F                  
MT. CLEMENS    MOSUNNY   74  64  70 SE6       29.91F                  
PONTIAC        PTSUNNY   75  61  61 VRB5      29.90F                  
PORT HOPE        N/A     60  53  77 E8        29.92F                  
PORT HURON     PTSUNNY   77  57  50 SW3       29.92F                  
TRI CITIES     FAIR      77  59  53 CALM      29.91F                  
MIDLAND        FAIR      78  54  43 CALM      29.90S                  
TROY           PTSUNNY   77  54  45 S3        29.93F                  
SAGINAW HB     FAIR      79  59  50 S6        29.90F                  
$$
MIZ043>046-050>051-056>058-064>065-071>073-077>080-182100-
SOUTHWEST LOWER MICHIGAN
  
CITY           SKY/WX    TMP DP  RH WIND       PRES   REMARKS
BATTLE CREEK   FAIR      78  63  59 VRB6      29.91F                  
BENTON HARBOR  FAIR      70  61  73 NW8       29.92F                  
BIG RAPIDS     CLOUDY    76  59  55 W5        29.91F                  
COLDWATER      FAIR      76  60  55 CALM      29.91F                  
FREMONT        FAIR      76  55  48 S7        29.91F                  
HOLLAND        FAIR      73  60  63 NW8       29.93F                  
GRAND RAPIDS   FAIR      78  60  53 S6        29.91F                  
IONIA          FAIR      78  55  44 S3        29.91F                  
KALAMAZOO      FAIR      80  58  46 VRB3      29.91F                  
LUDINGTON      FAIR      63  56  79 W5        29.92F                  
MARSHALL       PTSUNNY   79  62  56 SE3       29.91F                  
MOUNT PLEASANT PTSUNNY   78  56  45 SW5       29.90F                  
MUSKEGON       PTSUNNY   70  57  63 W8        29.93F                  
SOUTH HAVEN    FAIR      70  60  71 NW7       29.93F                  
$$
MIZ016>042-182100-
NORTHERN LOWER MICHIGAN
  
CITY           SKY/WX    TMP DP  RH WIND       PRES   REMARKS
ALPENA         FAIR      73  46  38 E10       29.90F                  
BEAVER ISLAND  FAIR      69  46  44 W10       29.91F                  
BELLAIRE       CLOUDY    74  47  38 W3        29.90F                  
CADILLAC       CLOUDY    76  58  54 SW10      29.91F                  
CHARLEVOIX     FAIR      69  50  50 NW8       29.94F                  
FRANKFORT      CLOUDY    64  56  73 W8        29.93S                  
GAYLORD        PTSUNNY   73  49  42 W8        29.91F                  
GRAYLING       PTSUNNY   75  57  54 SW8       29.90S                  
HARBOR SPRINGS CLOUDY    64  51  61 SW5       29.91S                  
HOUGHTON LAKE  CLOUDY    74  55  51 VRB6      29.92S                  
MANISTEE       FAIR      71  61  70 W8        29.90F                  
OSCODA         FAIR      74  49  40 SE10      29.90F                  
PELLSTON       PTSUNNY   75  45  34 VRB6      29.90F                  
ROGERS CITY    FAIR      65  51  60 N6        29.91F                  
TRAVERSE CITY  PTSUNNY   75  53  46 NW8       29.89F                  
$$
MIZ007>008-015-182100-
EASTERN UPPER MICHIGAN
  
CITY           SKY/WX    TMP DP  RH WIND       PRES   REMARKS
KINROSS        PTSUNNY   73  56  54 S10       29.89F                  
MACKINAC ISLAN FAIR      67  49  52 CALM      29.90F                  
NEWBERRY       CLOUDY    65  46  49 S10       29.90R                  
S. S. MARIE    PTSUNNY   74  55  51 SE10      29.88F                  
MUNISING         N/A     52  49  89 NW13      29.91R                  
$$
MIZ004>006-011>014-085-182100-
CENTRAL UPPER MICHIGAN
  
CITY           SKY/WX    TMP DP  RH WIND       PRES   REMARKS
MANISTIQUE     CLOUDY    59  56  89 S9        29.89F                  
ESCANABA       PTSUNNY   64  56  75 S9        29.88S                  
MENOMINEE      FAIR      72  62  71 SW12      29.87F                  
SAWYER-GWINN   CLOUDY    55  52  88 NE14      29.91R                  
$$
MIZ001>003-009>011-084-182100-
WESTERN UPPER MICHIGAN
  
CITY           SKY/WX    TMP DP  RH WIND       PRES   REMARKS
IRON MOUNTAIN  PTSUNNY   77  52  41 NW14G22   29.86S                  
HOUGHTON       CLOUDY    58  48  69 NW9       29.93S                  
COPPER HARBOR    N/A     46  43  89 NE6       29.94S                  
IRONWOOD       CLOUDY    62  52  69 W3        29.95F                  
$$

ABBREVIATIONS USED IN REMARKS
   TC - TEMPERATURE IN CELSIUS
  WCI - WIND CHILL INDEX
   HX - HEAT INDEX
  VSB - VISIBILITY